Time,TemperatureF,DewpointF,PressureIn,WindDirection,WindDirectionDegrees,WindSpeedMPH,WindSpeedGustMPH,Humidity,HourlyPrecipIn,Conditions,Clouds,dailyrainin,SoftwareType,DateUTC
2013-03-21 00:00:00,57.9,57.6,29.80,North,0,0.0,0.0,99,0.00,,,0.53,meteohub,2013-03-21 04:00:00,
2013-03-21 00:03:00,57.9,57.6,29.81,SW,225,0.0,0.0,99,0.00,,,0.53,meteohub,2013-03-21 04:03:00,
2013-03-21 00:05:00,57.9,57.6,29.81,SW,225,0.0,0.0,99,0.00,,,0.00,meteohub,2013-03-21 04:05:00,
2013-03-21 00:07:00,57.9,57.6,29.81,SW,225,0.0,0.0,99,0.00,,,0.00,meteohub,2013-03-21 04:07:00,
2013-03-21 00:12:00,57.7,57.4,29.81,NW,315,0.0,1.0,99,0.00,,,0.00,meteohub,2013-03-21 04:12:00,
2013-03-21 00:17:00,57.7,57.4,29.81,SW,225,1.0,1.0,99,0.00,,,0.00,meteohub,2013-03-21 04:17:00,
2013-03-21 00:22:00,57.7,57.4,29.82,North,0,1.0,2.0,99,0.00,,,0.00,meteohub,2013-03-21 04:22:00,
2013-03-21 00:27:00,57.6,57.2,29.82,North,0,0.0,2.0,99,0.00,,,0.00,meteohub,2013-03-21 04:27:00,
2013-03-21 00:33:00,57.6,57.2,29.82,West,270,2.0,2.0,99,0.00,,,0.00,meteohub,2013-03-21 04:33:00,
2013-03-21 00:38:00,57.6,57.2,29.82,West,270,2.0,2.0,99,0.00,,,0.00,meteohub,2013-03-21 04:38:00,
2013-03-21 00:43:00,57.4,57.0,29.81,North,0,0.0,2.0,99,0.00,,,0.00,meteohub,2013-03-21 04:43:00,
2013-03-21 00:48:00,57.4,57.0,29.82,West,270,0.0,2.0,99,0.00,,,0.00,meteohub,2013-03-21 04:48:00,
2013-03-21 00:53:00,57.4,57.0,29.82,North,0,0.0,2.0,99,0.00,,,0.00,meteohub,2013-03-21 04:53:00,
2013-03-21 00:59:00,57.2,56.8,29.82,North,0,0.0,2.0,99,0.00,,,0.00,meteohub,2013-03-21 04:59:00,
2013-03-21 01:04:00,57.2,56.8,29.82,North,0,0.0,2.0,99,0.00,,,0.00,meteohub,2013-03-21 05:04:00,
2013-03-21 01:09:00,57.0,56.7,29.83,North,0,0.0,1.0,99,0.00,,,0.00,meteohub,2013-03-21 05:09:00,
2013-03-21 01:14:00,56.8,56.5,29.83,North,0,0.0,0.0,99,0.00,,,0.00,meteohub,2013-03-21 05:14:00,
2013-03-21 01:19:00,56.7,56.3,29.84,North,0,0.0,0.0,99,0.00,,,0.00,meteohub,2013-03-21 05:19:00,
2013-03-21 01:24:00,56.3,55.9,29.84,North,0,0.0,0.0,99,0.00,,,0.00,meteohub,2013-03-21 05:24:00,
2013-03-21 01:29:00,56.3,55.9,29.84,North,0,0.0,0.0,99,0.00,,,0.00,meteohub,2013-03-21 05:29:00,
2013-03-21 01:34:00,56.1,55.8,29.84,North,0,0.0,0.0,99,0.00,,,0.00,meteohub,2013-03-21 05:34:00,
2013-03-21 01:39:00,56.3,55.9,29.84,North,0,0.0,0.0,99,0.00,,,0.00,meteohub,2013-03-21 05:39:00,
2013-03-21 01:45:00,56.3,55.9,29.84,NW,315,0.0,0.0,99,0.00,,,0.00,meteohub,2013-03-21 05:45:00,
2013-03-21 01:50:00,56.5,56.1,29.84,NW,315,3.0,0.0,99,0.00,,,0.00,meteohub,2013-03-21 05:50:00,
2013-03-21 01:55:00,56.7,56.3,29.84,SW,225,1.0,3.0,99,0.00,,,0.00,meteohub,2013-03-21 05:55:00,
2013-03-21 02:00:00,56.7,56.3,29.84,North,0,4.0,4.0,99,0.00,,,0.00,meteohub,2013-03-21 06:00:00,
2013-03-21 02:05:00,56.3,55.9,29.85,NW,315,0.0,4.0,99,0.00,,,0.00,meteohub,2013-03-21 06:05:00,
2013-03-21 02:10:00,56.1,55.8,29.85,North,0,1.0,4.0,99,0.00,,,0.00,meteohub,2013-03-21 06:10:00,
2013-03-21 02:16:00,55.9,55.6,29.85,NE,45,1.0,3.0,99,0.00,,,0.00,meteohub,2013-03-21 06:16:00,
2013-03-21 02:21:00,55.9,55.6,29.85,NW,315,0.0,2.0,99,0.00,,,0.00,meteohub,2013-03-21 06:21:00,
2013-03-21 02:26:00,55.8,55.4,29.85,NW,315,1.0,2.0,99,0.00,,,0.00,meteohub,2013-03-21 06:26:00,
2013-03-21 02:31:00,55.9,55.6,29.85,North,0,2.0,2.0,99,0.00,,,0.00,meteohub,2013-03-21 06:31:00,
2013-03-21 02:36:00,55.9,55.6,29.86,North,0,2.0,2.0,99,0.00,,,0.00,meteohub,2013-03-21 06:36:00,
2013-03-21 02:41:00,55.8,55.4,29.86,SW,225,2.0,4.0,99,0.00,,,0.00,meteohub,2013-03-21 06:41:00,
2013-03-21 02:46:00,55.6,55.2,29.86,North,0,2.0,4.0,99,0.00,,,0.00,meteohub,2013-03-21 06:46:00,
2013-03-21 02:51:00,55.4,55.0,29.87,North,0,2.0,4.0,99,0.00,,,0.00,meteohub,2013-03-21 06:51:00,
2013-03-21 02:56:00,55.4,55.0,29.87,North,0,4.0,4.0,99,0.00,,,0.00,meteohub,2013-03-21 06:56:00,
2013-03-21 03:01:00,55.4,55.0,29.88,NE,45,1.0,4.0,99,0.00,,,0.00,meteohub,2013-03-21 07:01:00,
2013-03-21 03:06:00,55.2,54.3,29.88,NW,315,2.0,4.0,97,0.00,,,0.00,meteohub,2013-03-21 07:06:00,
2013-03-21 03:12:00,55.2,54.3,29.88,SW,225,0.0,4.0,97,0.00,,,0.00,meteohub,2013-03-21 07:12:00,
2013-03-21 03:17:00,55.2,54.3,29.88,NNW,338,3.0,3.0,97,0.00,,,0.00,meteohub,2013-03-21 07:17:00,
2013-03-21 03:22:00,55.2,54.3,29.88,NW,315,2.0,4.0,97,0.00,,,0.00,meteohub,2013-03-21 07:22:00,
2013-03-21 03:27:00,55.2,54.3,29.87,North,0,2.0,4.0,97,0.00,,,0.00,meteohub,2013-03-21 07:27:00,
2013-03-21 03:32:00,55.2,54.3,29.87,North,0,1.0,4.0,97,0.00,,,0.00,meteohub,2013-03-21 07:32:00,
2013-03-21 03:37:00,55.2,54.3,29.88,NW,315,0.0,2.0,97,0.00,,,0.00,meteohub,2013-03-21 07:37:00,
2013-03-21 03:42:00,55.0,54.1,29.88,NW,315,0.0,2.0,97,0.00,,,0.00,meteohub,2013-03-21 07:42:00,
2013-03-21 03:47:00,54.9,54.0,29.88,NW,315,0.0,2.0,97,0.00,,,0.00,meteohub,2013-03-21 07:47:00,
2013-03-21 03:52:00,54.7,53.8,29.89,NW,315,0.0,0.0,97,0.00,,,0.00,meteohub,2013-03-21 07:52:00,
2013-03-21 03:57:00,54.5,53.6,29.89,West,270,0.0,0.0,97,0.00,,,0.00,meteohub,2013-03-21 07:57:00,
2013-03-21 04:02:00,54.3,53.4,29.89,SW,225,0.0,0.0,97,0.00,,,0.00,meteohub,2013-03-21 08:02:00,
2013-03-21 04:08:00,54.1,53.2,29.89,North,0,0.0,0.0,97,0.00,,,0.00,meteohub,2013-03-21 08:08:00,
2013-03-21 04:13:00,54.0,53.1,29.89,North,0,0.0,0.0,97,0.00,,,0.00,meteohub,2013-03-21 08:13:00,
2013-03-21 04:18:00,53.6,52.7,29.89,North,0,0.0,0.0,97,0.00,,,0.00,meteohub,2013-03-21 08:18:00,
2013-03-21 04:23:00,53.2,52.7,29.89,NW,315,0.0,0.0,98,0.00,,,0.00,meteohub,2013-03-21 08:23:00,
2013-03-21 04:28:00,53.1,52.5,29.90,NW,315,0.0,0.0,98,0.00,,,0.00,meteohub,2013-03-21 08:28:00,
2013-03-21 04:33:00,52.9,52.3,29.90,NE,45,0.0,0.0,98,0.00,,,0.00,meteohub,2013-03-21 08:33:00,
2013-03-21 04:38:00,52.7,52.2,29.90,SW,225,0.0,0.0,98,0.00,,,0.00,meteohub,2013-03-21 08:38:00,
2013-03-21 04:44:00,52.7,52.2,29.91,NW,315,0.0,0.0,98,0.00,,,0.00,meteohub,2013-03-21 08:44:00,
2013-03-21 04:49:00,52.7,52.2,29.90,SW,225,0.0,0.0,98,0.00,,,0.00,meteohub,2013-03-21 08:49:00,
2013-03-21 04:54:00,52.5,52.0,29.90,SW,225,0.0,0.0,98,0.00,,,0.00,meteohub,2013-03-21 08:54:00,
2013-03-21 04:59:00,52.5,52.0,29.91,NW,315,0.0,0.0,98,0.00,,,0.00,meteohub,2013-03-21 08:59:00,
2013-03-21 05:04:00,52.3,51.8,29.91,West,270,0.0,0.0,98,0.00,,,0.00,meteohub,2013-03-21 09:04:00,
2013-03-21 05:09:00,52.2,51.6,29.91,NW,315,0.0,0.0,98,0.00,,,0.00,meteohub,2013-03-21 09:09:00,
2013-03-21 05:14:00,52.2,51.6,29.91,NW,315,0.0,0.0,98,0.00,,,0.00,meteohub,2013-03-21 09:14:00,
2013-03-21 05:19:00,52.0,51.4,29.92,NW,315,0.0,0.0,98,0.00,,,0.00,meteohub,2013-03-21 09:19:00,
2013-03-21 05:24:00,51.8,51.3,29.92,NE,45,0.0,0.0,98,0.00,,,0.00,meteohub,2013-03-21 09:24:00,
2013-03-21 05:30:00,51.6,51.3,29.92,NW,315,0.0,0.0,99,0.00,,,0.00,meteohub,2013-03-21 09:30:00,
2013-03-21 05:35:00,51.4,51.1,29.93,NW,315,0.0,0.0,99,0.00,,,0.00,meteohub,2013-03-21 09:35:00,
2013-03-21 05:40:00,51.3,50.9,29.93,West,270,0.0,0.0,99,0.00,,,0.00,meteohub,2013-03-21 09:40:00,
2013-03-21 05:45:00,51.1,50.7,29.94,West,270,2.0,4.0,99,0.00,,,0.00,meteohub,2013-03-21 09:45:00,
2013-03-21 05:50:00,50.9,50.5,29.94,North,0,0.0,4.0,99,0.00,,,0.00,meteohub,2013-03-21 09:50:00,
2013-03-21 05:55:00,50.7,50.4,29.94,NW,315,1.0,4.0,99,0.00,,,0.00,meteohub,2013-03-21 09:55:00,
2013-03-21 06:00:00,50.5,50.2,29.94,NW,315,0.0,2.0,99,0.00,,,0.00,meteohub,2013-03-21 10:00:00,
2013-03-21 06:05:00,50.4,50.0,29.94,North,0,0.0,2.0,99,0.00,,,0.00,meteohub,2013-03-21 10:05:00,
2013-03-21 06:10:00,50.0,49.6,29.94,West,270,0.0,1.0,99,0.00,,,0.00,meteohub,2013-03-21 10:10:00,
2013-03-21 06:15:00,49.8,49.5,29.94,NW,315,0.0,1.0,99,0.00,,,0.00,meteohub,2013-03-21 10:15:00,
2013-03-21 06:20:00,49.6,49.5,29.95,WNW,293,0.0,0.0,99,0.00,,,0.00,meteohub,2013-03-21 10:20:00,
2013-03-21 06:25:00,49.3,49.1,29.95,NW,315,0.0,0.0,99,0.00,,,0.00,meteohub,2013-03-21 10:25:00,
2013-03-21 06:30:00,49.1,48.9,29.96,NW,315,0.0,0.0,99,0.00,,,0.00,meteohub,2013-03-21 10:30:00,
2013-03-21 06:35:00,48.9,48.7,29.96,NW,315,0.0,0.0,99,0.00,,,0.00,meteohub,2013-03-21 10:35:00,
2013-03-21 06:41:00,48.7,48.6,29.96,NW,315,0.0,0.0,99,0.00,,,0.00,meteohub,2013-03-21 10:41:00,
2013-03-21 06:46:00,48.6,48.4,29.97,SE,135,0.0,0.0,99,0.00,,,0.00,meteohub,2013-03-21 10:46:00,
2013-03-21 06:51:00,48.4,48.2,29.97,North,0,0.0,0.0,99,0.00,,,0.00,meteohub,2013-03-21 10:51:00,
2013-03-21 06:56:00,48.2,48.0,29.97,WNW,293,0.0,0.0,99,0.00,,,0.00,meteohub,2013-03-21 10:56:00,
2013-03-21 07:01:00,48.0,47.8,29.98,West,270,0.0,0.0,99,0.00,,,0.00,meteohub,2013-03-21 11:01:00,
2013-03-21 07:06:00,47.7,47.5,29.98,NW,315,0.0,0.0,99,0.00,,,0.00,meteohub,2013-03-21 11:06:00,
2013-03-21 07:11:00,47.5,47.3,29.98,NW,315,0.0,0.0,99,0.00,,,0.00,meteohub,2013-03-21 11:11:00,
2013-03-21 07:17:00,47.3,47.1,29.99,NW,315,0.0,0.0,99,0.00,,,0.00,meteohub,2013-03-21 11:17:00,
2013-03-21 07:22:00,46.9,46.8,29.99,NW,315,0.0,0.0,99,0.00,,,0.00,meteohub,2013-03-21 11:22:00,
2013-03-21 07:27:00,46.8,46.6,29.99,NW,315,0.0,0.0,99,0.00,,,0.00,meteohub,2013-03-21 11:27:00,
2013-03-21 07:32:00,46.6,46.4,29.99,NW,315,0.0,0.0,99,0.00,,,0.00,meteohub,2013-03-21 11:32:00,
2013-03-21 07:37:00,46.6,46.4,30.00,NW,315,0.0,0.0,99,0.00,,,0.00,meteohub,2013-03-21 11:37:00,
2013-03-21 07:42:00,46.4,46.2,30.01,NW,315,0.0,0.0,99,0.00,,,0.00,meteohub,2013-03-21 11:42:00,
2013-03-21 07:48:00,46.2,45.5,30.01,West,270,0.0,0.0,97,0.00,,,0.00,meteohub,2013-03-21 11:48:00,
2013-03-21 07:53:00,46.2,45.5,30.01,West,270,0.0,0.0,97,0.00,,,0.00,meteohub,2013-03-21 11:53:00,
2013-03-21 07:59:00,46.2,45.5,30.02,West,270,0.0,0.0,97,0.00,,,0.00,meteohub,2013-03-21 11:59:00,
2013-03-21 08:04:00,46.2,45.5,30.02,North,0,0.0,0.0,97,0.00,,,0.00,meteohub,2013-03-21 12:04:00,
2013-03-21 08:09:00,46.4,46.2,30.02,North,0,0.0,0.0,99,0.00,,,0.00,meteohub,2013-03-21 12:09:00,
2013-03-21 08:14:00,46.4,46.2,30.02,NW,315,0.0,0.0,99,0.00,,,0.00,meteohub,2013-03-21 12:14:00,
2013-03-21 08:19:00,46.8,46.6,30.01,West,270,0.0,0.0,99,0.00,,,0.00,meteohub,2013-03-21 12:19:00,
2013-03-21 08:24:00,46.8,46.6,30.02,NW,315,0.0,0.0,99,0.00,,,0.00,meteohub,2013-03-21 12:24:00,
2013-03-21 08:30:00,47.1,46.9,30.03,NW,315,0.0,0.0,99,0.00,,,0.00,meteohub,2013-03-21 12:30:00,
2013-03-21 08:35:00,47.3,47.1,30.03,NW,315,0.0,0.0,99,0.00,,,0.00,meteohub,2013-03-21 12:35:00,
2013-03-21 08:40:00,47.5,47.3,30.03,NW,315,0.0,0.0,99,0.00,,,0.00,meteohub,2013-03-21 12:40:00,
2013-03-21 08:45:00,47.5,47.3,30.04,North,0,2.0,2.0,99,0.00,,,0.00,meteohub,2013-03-21 12:45:00,
2013-03-21 08:50:00,47.8,47.7,30.04,North,0,2.0,7.0,99,0.00,,,0.00,meteohub,2013-03-21 12:50:00,
2013-03-21 08:55:00,48.2,48.0,30.04,North,0,2.0,7.0,99,0.00,,,0.00,meteohub,2013-03-21 12:55:00,
2013-03-21 09:00:00,48.7,48.6,30.05,North,0,2.0,7.0,99,0.00,,,0.00,meteohub,2013-03-21 13:00:00,
2013-03-21 09:05:00,49.3,49.1,30.06,SW,225,2.0,7.0,99,0.00,,,0.00,meteohub,2013-03-21 13:05:00,
2013-03-21 09:10:00,49.8,49.3,30.06,NW,315,4.0,7.0,98,0.00,,,0.00,meteohub,2013-03-21 13:10:00,
2013-03-21 09:15:00,50.4,48.7,30.06,South,180,3.0,7.0,94,0.00,,,0.00,meteohub,2013-03-21 13:15:00,
2013-03-21 09:21:00,50.7,47.3,30.06,NNE,23,2.0,6.0,88,0.00,,,0.00,meteohub,2013-03-21 13:21:00,
2013-03-21 09:26:00,51.3,46.9,30.06,North,0,2.0,6.0,85,0.00,,,0.00,meteohub,2013-03-21 13:26:00,
2013-03-21 09:31:00,51.6,46.6,30.06,SW,225,4.0,5.0,83,0.00,,,0.00,meteohub,2013-03-21 13:31:00,
2013-03-21 09:36:00,52.0,46.0,30.06,NNE,23,4.0,4.0,80,0.00,,,0.00,meteohub,2013-03-21 13:36:00,
2013-03-21 09:41:00,52.2,45.5,30.07,North,0,4.0,4.0,78,0.00,,,0.00,meteohub,2013-03-21 13:41:00,
2013-03-21 09:47:00,52.7,45.7,30.07,North,0,4.0,4.0,77,0.00,,,0.00,meteohub,2013-03-21 13:47:00,
2013-03-21 09:52:00,53.2,45.1,30.07,NNW,338,4.0,5.0,74,0.00,,,0.00,meteohub,2013-03-21 13:52:00,
2013-03-21 09:58:00,54.1,45.7,30.08,North,0,3.0,6.0,73,0.00,,,0.00,meteohub,2013-03-21 13:58:00,
2013-03-21 10:03:00,54.7,45.9,30.08,NW,315,2.0,6.0,72,0.00,,,0.00,meteohub,2013-03-21 14:03:00,
2013-03-21 10:08:00,55.4,46.9,30.08,West,270,2.0,4.0,73,0.00,,,0.00,meteohub,2013-03-21 14:08:00,
2013-03-21 10:13:00,56.3,46.6,30.08,NW,315,2.0,4.0,70,0.00,,,0.00,meteohub,2013-03-21 14:13:00,
2013-03-21 10:18:00,57.0,46.6,30.09,North,0,5.0,5.0,68,0.00,,,0.00,meteohub,2013-03-21 14:18:00,
2013-03-21 10:23:00,57.6,46.2,30.09,North,0,4.0,5.0,66,0.00,,,0.00,meteohub,2013-03-21 14:23:00,
2013-03-21 10:28:00,58.1,46.4,30.08,West,270,2.0,5.0,65,0.00,,,0.00,meteohub,2013-03-21 14:28:00,
2013-03-21 10:33:00,58.6,46.9,30.08,SW,225,2.0,5.0,65,0.00,,,0.00,meteohub,2013-03-21 14:33:00,
2013-03-21 10:38:00,58.8,46.2,30.09,NE,45,4.0,5.0,63,0.00,,,0.00,meteohub,2013-03-21 14:38:00,
2013-03-21 10:43:00,58.8,45.9,30.09,West,270,2.0,5.0,62,0.00,,,0.00,meteohub,2013-03-21 14:43:00,
2013-03-21 10:48:00,59.4,46.8,30.09,NE,45,3.0,5.0,63,0.00,,,0.00,meteohub,2013-03-21 14:48:00,
2013-03-21 10:53:00,59.7,44.4,30.09,North,0,4.0,5.0,57,0.00,,,0.00,meteohub,2013-03-21 14:53:00,
2013-03-21 10:59:00,60.4,45.7,30.09,NE,45,3.0,4.0,58,0.00,,,0.00,meteohub,2013-03-21 14:59:00,
2013-03-21 11:04:00,60.6,44.4,30.09,North,0,5.0,5.0,55,0.00,,,0.00,meteohub,2013-03-21 15:04:00,
2013-03-21 11:09:00,61.0,45.1,30.09,NW,315,1.0,6.0,56,0.00,,,0.00,meteohub,2013-03-21 15:09:00,
2013-03-21 11:14:00,61.0,43.7,30.09,NNW,338,2.0,6.0,53,0.00,,,0.00,meteohub,2013-03-21 15:14:00,
2013-03-21 11:19:00,60.6,43.3,30.10,North,0,4.0,6.0,53,0.00,,,0.00,meteohub,2013-03-21 15:19:00,
2013-03-21 11:24:00,60.4,43.7,30.10,NW,315,2.0,5.0,54,0.00,,,0.00,meteohub,2013-03-21 15:24:00,
2013-03-21 11:30:00,60.8,43.0,30.10,NW,315,2.0,5.0,52,0.00,,,0.00,meteohub,2013-03-21 15:30:00,
2013-03-21 11:35:00,61.3,41.5,30.10,North,0,4.0,5.0,48,0.00,,,0.00,meteohub,2013-03-21 15:35:00,
2013-03-21 11:40:00,61.3,41.0,30.10,North,0,4.0,4.0,47,0.00,,,0.00,meteohub,2013-03-21 15:40:00,
2013-03-21 11:45:00,62.2,41.7,30.09,SW,225,4.0,4.0,47,0.00,,,0.00,meteohub,2013-03-21 15:45:00,
2013-03-21 11:50:00,63.0,40.1,30.09,North,0,4.0,4.0,43,0.00,,,0.00,meteohub,2013-03-21 15:50:00,
2013-03-21 11:55:00,63.3,41.0,30.09,NW,315,5.0,5.0,44,0.00,,,0.00,meteohub,2013-03-21 15:55:00,
2013-03-21 12:00:00,63.9,41.5,30.09,NE,45,3.0,5.0,44,0.00,,,0.00,meteohub,2013-03-21 16:00:00,
2013-03-21 12:05:00,64.4,41.4,30.09,NW,315,4.0,5.0,43,0.00,,,0.00,meteohub,2013-03-21 16:05:00,
2013-03-21 12:10:00,64.6,42.8,30.09,North,0,3.0,5.0,45,0.01,,,0.01,meteohub,2013-03-21 16:10:00,
2013-03-21 12:15:00,64.9,43.2,30.09,NE,45,4.0,5.0,45,0.01,,,0.01,meteohub,2013-03-21 16:15:00,
2013-03-21 12:20:00,64.9,38.7,30.09,NE,45,4.0,4.0,38,0.01,,,0.01,meteohub,2013-03-21 16:20:00,
2013-03-21 12:25:00,65.3,41.0,30.09,South,180,2.0,5.0,41,0.01,,,0.01,meteohub,2013-03-21 16:25:00,
2013-03-21 12:30:00,66.0,40.3,30.08,NW,315,4.0,5.0,39,0.01,,,0.01,meteohub,2013-03-21 16:30:00,
2013-03-21 12:36:00,66.0,39.0,30.08,North,0,4.0,5.0,37,0.01,,,0.01,meteohub,2013-03-21 16:36:00,
2013-03-21 12:41:00,66.0,39.0,30.08,NW,315,4.0,5.0,37,0.01,,,0.01,meteohub,2013-03-21 16:41:00,
2013-03-21 12:46:00,65.8,37.4,30.08,NW,315,2.0,12.0,35,0.01,,,0.01,meteohub,2013-03-21 16:46:00,
2013-03-21 12:52:00,66.4,37.2,30.07,NE,45,3.0,12.0,34,0.01,,,0.01,meteohub,2013-03-21 16:52:00,
2013-03-21 12:57:00,66.4,37.2,30.07,NNW,338,3.0,12.0,34,0.01,,,0.01,meteohub,2013-03-21 16:57:00,
2013-03-21 13:02:00,66.9,37.6,30.07,North,0,2.0,8.0,34,0.01,,,0.01,meteohub,2013-03-21 17:02:00,
2013-03-21 13:07:00,66.4,37.2,30.07,North,0,2.0,8.0,34,0.00,,,0.01,meteohub,2013-03-21 17:07:00,
2013-03-21 13:12:00,66.6,38.1,30.07,NW,315,4.0,5.0,35,0.00,,,0.01,meteohub,2013-03-21 17:12:00,
2013-03-21 13:18:00,67.5,38.1,30.07,NNW,338,4.0,4.0,34,0.00,,,0.01,meteohub,2013-03-21 17:18:00,
2013-03-21 13:23:00,67.5,38.1,30.06,SW,225,3.0,4.0,34,0.00,,,0.01,meteohub,2013-03-21 17:23:00,
2013-03-21 13:28:00,67.5,37.4,30.06,West,270,3.0,4.0,33,0.00,,,0.01,meteohub,2013-03-21 17:28:00,
2013-03-21 13:33:00,68.5,39.0,30.05,West,270,4.0,5.0,34,0.00,,,0.01,meteohub,2013-03-21 17:33:00,
2013-03-21 13:38:00,68.5,38.3,30.05,NNW,338,6.0,6.0,33,0.00,,,0.01,meteohub,2013-03-21 17:38:00,
2013-03-21 13:43:00,68.0,36.3,30.04,SW,225,4.0,5.0,31,0.00,,,0.01,meteohub,2013-03-21 17:43:00,
2013-03-21 13:49:00,68.5,36.7,30.04,East,90,2.0,7.0,31,0.00,,,0.01,meteohub,2013-03-21 17:49:00,
2013-03-21 13:54:00,69.1,35.4,30.02,SW,225,4.0,7.0,29,0.00,,,0.01,meteohub,2013-03-21 17:54:00,
2013-03-21 13:59:00,68.0,34.5,30.02,South,180,4.0,7.0,29,0.00,,,0.01,meteohub,2013-03-21 17:59:00,
2013-03-21 14:04:00,68.2,36.3,30.01,SW,225,3.0,6.0,31,0.00,,,0.01,meteohub,2013-03-21 18:04:00,
2013-03-21 14:09:00,68.4,38.1,30.00,North,0,4.0,5.0,33,0.00,,,0.01,meteohub,2013-03-21 18:09:00,
2013-03-21 14:14:00,69.1,37.2,30.00,West,270,5.0,5.0,31,0.00,,,0.01,meteohub,2013-03-21 18:14:00,
2013-03-21 14:19:00,68.5,33.3,29.99,West,270,2.0,5.0,27,0.00,,,0.01,meteohub,2013-03-21 18:19:00,
2013-03-21 14:25:00,69.1,35.4,29.99,North,0,2.0,6.0,29,0.00,,,0.01,meteohub,2013-03-21 18:25:00,
2013-03-21 14:30:00,69.4,32.0,29.99,North,0,4.0,6.0,25,0.00,,,0.01,meteohub,2013-03-21 18:30:00,
2013-03-21 14:35:00,70.0,31.5,29.99,North,0,5.0,7.0,24,0.00,,,0.01,meteohub,2013-03-21 18:35:00,
2013-03-21 14:40:00,70.3,31.8,29.99,NW,315,2.0,7.0,24,0.00,,,0.01,meteohub,2013-03-21 18:40:00,
2013-03-21 14:45:00,71.2,32.5,29.98,West,270,4.0,5.0,24,0.00,,,0.01,meteohub,2013-03-21 18:45:00,
2013-03-21 14:50:00,71.6,31.8,29.98,West,270,4.0,5.0,23,0.00,,,0.01,meteohub,2013-03-21 18:50:00,
2013-03-21 14:55:00,71.1,32.4,29.98,East,90,4.0,10.0,24,0.00,,,0.01,meteohub,2013-03-21 18:55:00,
2013-03-21 15:00:00,70.5,32.0,29.97,South,180,4.0,10.0,24,0.00,,,0.01,meteohub,2013-03-21 19:00:00,
2013-03-21 15:05:00,69.8,30.4,29.97,SW,225,4.0,10.0,23,0.00,,,0.01,meteohub,2013-03-21 19:05:00,
2013-03-21 15:11:00,69.4,31.1,29.97,North,0,4.0,8.0,24,0.00,,,0.01,meteohub,2013-03-21 19:11:00,
2013-03-21 15:16:00,70.0,30.6,29.96,SW,225,4.0,10.0,23,0.00,,,0.01,meteohub,2013-03-21 19:16:00,
2013-03-21 15:21:00,70.0,30.6,29.96,North,0,5.0,10.0,23,0.00,,,0.01,meteohub,2013-03-21 19:21:00,
2013-03-21 15:26:00,70.2,30.6,29.96,SW,225,2.0,10.0,23,0.00,,,0.01,meteohub,2013-03-21 19:26:00,
2013-03-21 15:31:00,70.0,29.3,29.96,North,0,3.0,8.0,22,0.00,,,0.01,meteohub,2013-03-21 19:31:00,
2013-03-21 15:36:00,70.0,29.3,29.96,SW,225,4.0,9.0,22,0.00,,,0.01,meteohub,2013-03-21 19:36:00,
2013-03-21 15:42:00,69.4,30.0,29.95,WNW,293,8.0,9.0,23,0.00,,,0.01,meteohub,2013-03-21 19:42:00,
2013-03-21 15:47:00,69.4,30.0,29.95,NW,315,4.0,8.0,23,0.00,,,0.01,meteohub,2013-03-21 19:47:00,
2013-03-21 15:52:00,69.1,28.6,29.94,West,270,4.0,8.0,22,0.00,,,0.01,meteohub,2013-03-21 19:52:00,
2013-03-21 15:57:00,68.5,29.3,29.94,SW,225,3.0,8.0,23,0.00,,,0.01,meteohub,2013-03-21 19:57:00,
2013-03-21 16:02:00,68.9,31.6,29.94,West,270,4.0,8.0,25,0.00,,,0.01,meteohub,2013-03-21 20:02:00,
2013-03-21 16:08:00,69.3,32.9,29.93,NW,315,6.0,8.0,26,0.00,,,0.01,meteohub,2013-03-21 20:08:00,
2013-03-21 16:13:00,69.1,30.7,29.93,WSW,248,10.0,10.0,24,0.00,,,0.01,meteohub,2013-03-21 20:13:00,
2013-03-21 16:18:00,69.1,31.8,29.92,West,270,2.0,10.0,25,0.00,,,0.01,meteohub,2013-03-21 20:18:00,
2013-03-21 16:23:00,69.1,32.7,29.92,West,270,8.0,10.0,26,0.00,,,0.01,meteohub,2013-03-21 20:23:00,
2013-03-21 16:28:00,68.7,31.5,29.92,South,180,3.0,10.0,25,0.00,,,0.01,meteohub,2013-03-21 20:28:00,
2013-03-21 16:33:00,68.7,32.4,29.91,North,0,2.0,8.0,26,0.00,,,0.01,meteohub,2013-03-21 20:33:00,
2013-03-21 16:38:00,68.9,33.6,29.92,NW,315,8.0,8.0,27,0.00,,,0.01,meteohub,2013-03-21 20:38:00,
2013-03-21 16:43:00,69.3,32.9,29.91,SW,225,3.0,5.0,26,0.00,,,0.01,meteohub,2013-03-21 20:43:00,
2013-03-21 16:48:00,69.1,32.7,29.91,West,270,3.0,8.0,26,0.00,,,0.01,meteohub,2013-03-21 20:48:00,
2013-03-21 16:54:00,69.3,34.7,29.91,West,270,2.0,8.0,28,0.00,,,0.01,meteohub,2013-03-21 20:54:00,
2013-03-21 16:59:00,69.3,29.8,29.90,West,270,4.0,4.0,23,0.00,,,0.01,meteohub,2013-03-21 20:59:00,
2013-03-21 17:04:00,69.4,28.9,29.90,NW,315,2.0,8.0,22,0.00,,,0.01,meteohub,2013-03-21 21:04:00,
2013-03-21 17:09:00,69.8,27.0,29.90,SW,225,3.0,8.0,20,0.00,,,0.01,meteohub,2013-03-21 21:09:00,
2013-03-21 17:14:00,69.8,23.0,29.90,NW,315,7.0,8.0,17,0.00,,,0.01,meteohub,2013-03-21 21:14:00,
2013-03-21 17:19:00,69.3,23.9,29.90,North,0,4.0,7.0,18,0.00,,,0.01,meteohub,2013-03-21 21:19:00,
2013-03-21 17:25:00,69.8,23.0,29.89,SW,225,4.0,7.0,17,0.00,,,0.01,meteohub,2013-03-21 21:25:00,
2013-03-21 17:30:00,69.6,22.8,29.89,East,90,4.0,7.0,17,0.00,,,0.01,meteohub,2013-03-21 21:30:00,
2013-03-21 17:35:00,70.0,21.7,29.89,East,90,3.0,7.0,16,0.00,,,0.01,meteohub,2013-03-21 21:35:00,
2013-03-21 17:40:00,70.3,23.5,29.89,NW,315,3.0,7.0,17,0.00,,,0.01,meteohub,2013-03-21 21:40:00,
2013-03-21 17:45:00,70.5,23.5,29.89,SW,225,3.0,7.0,17,0.00,,,0.01,meteohub,2013-03-21 21:45:00,
2013-03-21 17:50:00,70.5,23.5,29.89,NW,315,4.0,6.0,17,0.00,,,0.01,meteohub,2013-03-21 21:50:00,
2013-03-21 17:55:00,70.5,25.0,29.89,North,0,3.0,6.0,18,0.00,,,0.01,meteohub,2013-03-21 21:55:00,
2013-03-21 18:00:00,70.5,25.0,29.90,NW,315,3.0,6.0,18,0.00,,,0.01,meteohub,2013-03-21 22:00:00,
2013-03-21 18:06:00,70.5,25.0,29.89,NW,315,4.0,5.0,18,0.00,,,0.01,meteohub,2013-03-21 22:06:00,
2013-03-21 18:11:00,71.1,26.8,29.89,NE,45,5.0,5.0,19,0.00,,,0.01,meteohub,2013-03-21 22:11:00,
2013-03-21 18:16:00,70.5,27.5,29.89,SW,225,4.0,6.0,20,0.00,,,0.01,meteohub,2013-03-21 22:16:00,
2013-03-21 18:22:00,70.3,24.8,29.89,North,0,2.0,6.0,18,0.00,,,0.01,meteohub,2013-03-21 22:22:00,
2013-03-21 18:27:00,70.5,23.5,29.90,East,90,1.0,6.0,17,0.00,,,0.01,meteohub,2013-03-21 22:27:00,
2013-03-21 18:32:00,70.7,25.2,29.90,West,270,3.0,6.0,18,0.00,,,0.01,meteohub,2013-03-21 22:32:00,
2013-03-21 18:37:00,71.1,25.3,29.90,South,180,4.0,5.0,18,0.00,,,0.01,meteohub,2013-03-21 22:37:00,
2013-03-21 18:42:00,70.5,23.5,29.90,South,180,4.0,5.0,17,0.00,,,0.01,meteohub,2013-03-21 22:42:00,
2013-03-21 18:47:00,69.8,23.0,29.91,SW,225,5.0,6.0,17,0.00,,,0.01,meteohub,2013-03-21 22:47:00,
2013-03-21 18:52:00,68.9,23.7,29.91,NW,315,4.0,6.0,18,0.00,,,0.01,meteohub,2013-03-21 22:52:00,
2013-03-21 18:57:00,68.4,23.2,29.91,West,270,2.0,6.0,18,0.00,,,0.01,meteohub,2013-03-21 22:57:00,
2013-03-21 19:02:00,68.0,25.3,29.91,NW,315,0.0,5.0,20,0.00,,,0.01,meteohub,2013-03-21 23:02:00,
2013-03-21 19:07:00,67.5,25.0,29.91,NW,315,2.0,4.0,20,0.00,,,0.01,meteohub,2013-03-21 23:07:00,
2013-03-21 19:12:00,66.9,26.8,29.91,West,270,2.0,3.0,22,0.00,,,0.01,meteohub,2013-03-21 23:12:00,
2013-03-21 19:17:00,66.4,27.5,29.92,North,0,2.0,2.0,23,0.00,,,0.01,meteohub,2013-03-21 23:17:00,
2013-03-21 19:22:00,65.8,28.9,29.92,North,0,1.0,2.0,25,0.00,,,0.01,meteohub,2013-03-21 23:22:00,
2013-03-21 19:27:00,65.5,28.8,29.91,NW,315,0.0,2.0,25,0.00,,,0.01,meteohub,2013-03-21 23:27:00,
2013-03-21 19:32:00,64.8,29.1,29.91,North,0,0.0,2.0,26,0.00,,,0.01,meteohub,2013-03-21 23:32:00,
2013-03-21 19:37:00,64.2,27.7,29.91,NNW,338,0.0,2.0,25,0.00,,,0.01,meteohub,2013-03-21 23:37:00,
2013-03-21 19:42:00,63.7,28.2,29.91,North,0,0.0,1.0,26,0.00,,,0.01,meteohub,2013-03-21 23:42:00,
2013-03-21 19:48:00,63.1,28.6,29.92,NW,315,0.0,0.0,27,0.00,,,0.01,meteohub,2013-03-21 23:48:00,
2013-03-21 19:53:00,62.4,30.6,29.92,NW,315,0.0,0.0,30,0.00,,,0.01,meteohub,2013-03-21 23:53:00,
2013-03-21 19:58:00,61.7,30.7,29.92,NW,315,0.0,0.0,31,0.00,,,0.01,meteohub,2013-03-21 23:58:00,
2013-03-21 20:03:00,61.0,30.9,29.93,NW,315,0.0,0.0,32,0.00,,,0.01,meteohub,2013-03-22 00:03:00,
2013-03-21 20:08:00,60.6,32.2,29.93,NW,315,0.0,0.0,34,0.00,,,0.01,meteohub,2013-03-22 00:08:00,
2013-03-21 20:14:00,59.9,32.2,29.93,NW,315,0.0,0.0,35,0.00,,,0.01,meteohub,2013-03-22 00:14:00,
2013-03-21 20:19:00,59.5,31.8,29.94,NW,315,0.0,0.0,35,0.00,,,0.01,meteohub,2013-03-22 00:19:00,
2013-03-21 20:24:00,59.0,32.0,29.94,NW,315,0.0,0.0,36,0.00,,,0.01,meteohub,2013-03-22 00:24:00,
2013-03-21 20:30:00,58.6,33.8,29.94,NW,315,0.0,0.0,39,0.00,,,0.01,meteohub,2013-03-22 00:30:00,
2013-03-21 20:35:00,57.9,34.3,29.94,NW,315,0.0,0.0,41,0.00,,,0.01,meteohub,2013-03-22 00:35:00,
2013-03-21 20:40:00,57.4,35.1,29.94,NW,315,0.0,0.0,43,0.00,,,0.01,meteohub,2013-03-22 00:40:00,
2013-03-21 20:45:00,56.8,35.8,29.95,NW,315,0.0,0.0,45,0.00,,,0.01,meteohub,2013-03-22 00:45:00,
2013-03-21 20:51:00,56.3,35.8,29.96,NW,315,0.0,0.0,46,0.00,,,0.01,meteohub,2013-03-22 00:51:00,
2013-03-21 20:56:00,55.9,37.0,29.96,West,270,1.0,3.0,49,0.00,,,0.01,meteohub,2013-03-22 00:56:00,
2013-03-21 21:01:00,55.9,36.5,29.96,North,0,1.0,3.0,48,0.00,,,0.01,meteohub,2013-03-22 01:01:00,
2013-03-21 21:06:00,56.1,36.7,29.97,NW,315,0.0,3.0,48,0.00,,,0.01,meteohub,2013-03-22 01:06:00,
2013-03-21 21:12:00,56.1,37.8,29.97,NW,315,0.0,2.0,50,0.00,,,0.01,meteohub,2013-03-22 01:12:00,
2013-03-21 21:17:00,56.1,38.3,29.97,NW,315,0.0,1.0,51,0.00,,,0.01,meteohub,2013-03-22 01:17:00,
2013-03-21 21:22:00,55.8,38.8,29.97,NW,315,0.0,0.0,53,0.00,,,0.01,meteohub,2013-03-22 01:22:00,
2013-03-21 21:27:00,55.9,39.9,29.98,West,270,2.0,3.0,55,0.00,,,0.01,meteohub,2013-03-22 01:27:00,
2013-03-21 21:32:00,56.3,40.8,29.98,SW,225,0.0,3.0,56,0.00,,,0.01,meteohub,2013-03-22 01:32:00,
2013-03-21 21:37:00,56.7,41.5,29.99,SW,225,2.0,3.0,57,0.00,,,0.01,meteohub,2013-03-22 01:37:00,
2013-03-21 21:42:00,56.7,41.5,29.98,SW,225,2.0,2.0,57,0.00,,,0.01,meteohub,2013-03-22 01:42:00,
2013-03-21 21:48:00,56.8,42.3,29.99,SW,225,1.0,2.0,58,0.00,,,0.01,meteohub,2013-03-22 01:48:00,
2013-03-21 21:53:00,56.8,42.6,30.00,West,270,2.0,2.0,59,0.00,,,0.01,meteohub,2013-03-22 01:53:00,
2013-03-21 21:58:00,56.7,42.4,30.00,West,270,2.0,3.0,59,0.00,,,0.01,meteohub,2013-03-22 01:58:00,
2013-03-21 22:04:00,56.7,43.0,29.99,SW,225,2.0,3.0,60,0.00,,,0.01,meteohub,2013-03-22 02:04:00,
2013-03-21 22:09:00,56.5,42.8,30.00,SW,225,2.0,3.0,60,0.00,,,0.01,meteohub,2013-03-22 02:09:00,
2013-03-21 22:14:00,56.1,42.4,30.00,SW,225,3.0,3.0,60,0.00,,,0.01,meteohub,2013-03-22 02:14:00,
2013-03-21 22:19:00,55.9,42.6,30.00,West,270,2.0,3.0,61,0.00,,,0.01,meteohub,2013-03-22 02:19:00,
2013-03-21 22:24:00,55.8,42.4,30.00,West,270,1.0,3.0,61,0.00,,,0.01,meteohub,2013-03-22 02:24:00,
2013-03-21 22:29:00,55.6,42.3,30.00,SW,225,1.0,3.0,61,0.00,,,0.01,meteohub,2013-03-22 02:29:00,
2013-03-21 22:35:00,55.4,42.6,30.01,WSW,248,2.0,3.0,62,0.00,,,0.01,meteohub,2013-03-22 02:35:00,
2013-03-21 22:40:00,55.2,42.4,30.01,SW,225,1.0,3.0,62,0.00,,,0.01,meteohub,2013-03-22 02:40:00,
2013-03-21 22:45:00,55.0,42.6,30.01,West,270,2.0,3.0,63,0.00,,,0.01,meteohub,2013-03-22 02:45:00,
2013-03-21 22:50:00,54.7,42.8,30.01,SW,225,1.0,2.0,64,0.00,,,0.01,meteohub,2013-03-22 02:50:00,
2013-03-21 22:56:00,54.5,42.6,30.01,SW,225,0.0,2.0,64,0.00,,,0.01,meteohub,2013-03-22 02:56:00,
2013-03-21 23:01:00,54.1,42.3,30.02,West,270,0.0,2.0,64,0.00,,,0.01,meteohub,2013-03-22 03:01:00,
2013-03-21 23:06:00,53.8,41.9,30.01,West,270,0.0,2.0,64,0.00,,,0.01,meteohub,2013-03-22 03:06:00,
2013-03-21 23:11:00,53.6,42.1,30.02,West,270,0.0,2.0,65,0.00,,,0.01,meteohub,2013-03-22 03:11:00,
2013-03-21 23:16:00,53.6,42.1,30.02,SW,225,2.0,2.0,65,0.00,,,0.01,meteohub,2013-03-22 03:16:00,
2013-03-21 23:21:00,53.4,42.8,30.02,SW,225,0.0,2.0,67,0.00,,,0.01,meteohub,2013-03-22 03:21:00,
2013-03-21 23:26:00,53.2,42.6,30.03,SW,225,0.0,2.0,67,0.00,,,0.01,meteohub,2013-03-22 03:26:00,
2013-03-21 23:31:00,52.9,42.6,30.03,SW,225,0.0,2.0,68,0.00,,,0.01,meteohub,2013-03-22 03:31:00,
2013-03-21 23:37:00,52.7,42.8,30.03,SW,225,0.0,0.0,69,0.00,,,0.01,meteohub,2013-03-22 03:37:00,
2013-03-21 23:42:00,52.2,42.6,30.03,West,270,0.0,0.0,70,0.00,,,0.01,meteohub,2013-03-22 03:42:00,
2013-03-21 23:47:00,52.0,43.2,30.04,North,0,0.0,0.0,72,0.00,,,0.01,meteohub,2013-03-22 03:47:00,
2013-03-21 23:52:00,51.6,43.3,30.04,North,0,0.0,0.0,73,0.00,,,0.01,meteohub,2013-03-22 03:52:00,
2013-03-21 23:57:00,51.3,43.3,30.05,North,0,0.0,0.0,74,0.00,,,0.01,meteohub,2013-03-22 03:57:00,